MST,Max TemperatureF,Mean TemperatureF,Min TemperatureF,Max Dew PointF,MeanDew PointF,Min DewpointF,Max Humidity, Mean Humidity, Min Humidity, Max Sea Level PressureIn, Mean Sea Level PressureIn, Min Sea Level PressureIn, Max VisibilityMiles, Mean VisibilityMiles, Min VisibilityMiles, Max Wind SpeedMPH, Mean Wind SpeedMPH, Max Gust SpeedMPH,PrecipitationIn, CloudCover, Events, WindDirDegrees
2013-1-1,59,46,32,30,29,27,87,56,34,30.28,30.22,30.15,20,20,20,6,1,,0.00,3,,337
2013-1-2,60,52,44,19,15,12,34,24,15,30.16,30.09,30.02,20,20,20,14,8,,0.00,0,,13
2013-1-3,62,50,39,16,12,9,39,20,13,30.23,30.14,30.08,20,20,20,16,11,23,0.00,0,,11
2013-1-4,59,48,37,25,20,18,45,30,21,30.32,30.26,30.22,20,20,20,7,3,,0.00,0,,29
2013-1-5,60,46,32,23,22,21,64,37,22,30.36,30.29,30.22,20,20,20,5,1,,0.00,0,,332
2013-1-6,64,50,37,28,25,21,65,37,19,30.17,30.07,29.95,20,20,20,8,5,,0.00,5,,82
2013-1-7,59,48,37,28,28,27,70,46,29,29.97,29.92,29.88,20,20,20,9,4,,0.00,3,,211
2013-1-8,66,50,33,30,24,19,81,37,18,30.08,30.02,29.97,20,20,20,7,2,,0.00,1,,178
2013-1-9,69,52,35,30,28,23,75,36,17,30.22,30.10,30.01,20,20,20,5,2,,0.00,4,,357
2013-1-10,55,47,39,30,29,27,70,47,35,29.96,29.87,29.80,20,20,20,6,2,,0.00,6,,37
2013-1-11,53,44,35,27,15,3,65,35,13,30.12,30.05,30.01,20,20,20,12,6,17,0.00,1,,218
2013-1-12,51,40,30,18,12,1,51,31,17,30.12,30.08,30.04,20,20,20,12,3,20,0.00,2,,214
2013-1-13,48,38,28,14,9,3,51,30,16,30.18,30.11,30.06,20,20,20,12,3,,0.00,3,,217
2013-1-14,44,36,28,12,8,5,51,32,20,30.23,30.18,30.11,20,20,20,8,5,,0.00,1,,195
2013-1-15,50,42,33,1,-3,-6,22,16,11,30.44,30.39,30.33,20,20,20,15,8,,0.00,1,,360
2013-1-16,59,46,32,18,13,10,41,27,17,30.41,30.31,30.25,20,20,20,6,3,,0.00,1,,342
2013-1-17,71,53,35,23,21,19,56,28,14,30.28,30.20,30.05,20,20,20,9,2,,0.00,0,,49
2013-1-18,73,57,41,27,23,19,46,26,13,30.25,30.17,30.10,20,20,20,7,3,,0.00,2,,70
2013-1-19,73,56,39,28,24,21,56,29,14,30.25,30.17,30.12,20,20,20,5,1,,0.00,1,,-1
2013-1-20,73,56,39,23,20,14,52,24,10,30.18,30.10,30.02,20,20,20,5,1,,0.00,1,,155
2013-1-21,77,59,41,23,19,14,42,22,10,30.13,30.06,30.02,20,20,20,6,1,,0.00,1,,135
2013-1-22,78,61,44,23,21,18,40,21,11,30.19,30.13,30.08,20,20,20,5,2,,0.00,1,,310
2013-1-23,78,61,44,30,28,27,53,29,15,30.21,30.14,30.08,20,20,20,6,2,,0.00,5,,52
2013-1-24,64,60,55,54,47,32,88,66,38,30.25,30.20,30.14,20,19,15,7,2,,0.00,7,Rain,331
2013-1-25,73,62,51,55,51,46,100,66,38,30.16,30.09,29.99,20,19,15,12,1,,0.00,7,Rain,345
2013-1-26,59,58,57,59,58,57,100,100,94,29.95,29.93,29.92,15,7,2,12,7,,0.00,8,Rain,184
2013-1-27,66,62,57,61,58,55,100,83,73,30.01,29.96,29.91,20,13,2,14,4,16,0.00,6,Rain,199
2013-1-28,55,52,48,46,37,32,87,59,47,30.02,29.99,29.91,20,20,20,14,10,17,0.00,6,,221
2013-1-29,62,48,35,36,31,27,100,55,26,30.14,30.10,30.05,20,20,20,17,5,23,0.00,2,,222
2013-1-30,60,48,37,36,32,25,93,54,25,30.37,30.30,30.23,20,20,20,6,2,,0.00,1,,194
2013-1-31,68,52,37,39,36,34,100,58,28,30.26,30.20,30.10,20,20,20,7,1,,0.00,5,,197